Location: Orange
(33.2833°S, 149.1000°E)
Time: 02:53:26
(UTC+11:00)

Envisat - Pass Details

Date: 04 October 2022
Orbit: 763 x 765 km, 98.2° (Epoch: 30 November)

Event Time Altitude Azimuth Distance (km) Brightness Sun altitude
Exits shadow 04:43:03 - 10° (N) 2,505 5.5 -24.0°
Reaches altitude 10° 04:43:34 10° 10° (N) 2,296 5.3 -23.9°
Maximum altitude 04:48:38 80° 282° (WNW) 785 2.8 -22.9°
Drops below altitude 10° 04:53:47 10° 195° (SSW) 2,326 5.6 -21.9°
Sets 04:56:07 0° 193° (SSW) 3,259 6.4 -21.5°
